Notices

What's New in latest Release from April 7th, 2021:

- Updated Glossary, including Speed of Maximum Gust, and Total Hourly Precipitation

- Updated national and regional climate services offices contacts and prices information

- Addition of station inventory lists for 1981-2010, 1971-2000, and 1961-1990 Normals.

If you haven't already, please take our survey and provide feedback about our website: https://eccc.sondage-survey.ca/f/LanguageSelection.aspx?s=442ca660-fcf1-47c0-95a9-59707d6fd709

Hourly Data Report for April 27, 2016

MIRAMICHI RCS
NEW BRUNSWICK

47°00'34.000" N
65°27'54.000" W
33.00 m
8100989
71744
ACQ

Download Data

Hourly Data (April 2016)
Hourly Data Report for April 27, 2016
TIME
LST
Temp Definition
°C
Dew Point Definition
°C
Rel Hum Definition
%
Precip. Amount Definition
mm

Wind Dir Definition
10's deg

Wind Spd Definition
km/h
Visibility Definition
km
Stn Press Definition
kPa
Hmdx Definition


Wind Chill Definition


Weather Definition


00:00 -1.6 -3.7 86 0.0 1 6   100.35   -4 LegendNANA
01:00 -2.7 -4.7 86 0.0 28 2   100.38   -3 LegendNANA
02:00 -3.7 -5.2 89 0.0 3 2   100.32   -5 LegendNANA
03:00 -4.0 -5.4 90 0.0 36 1   100.29   -4 LegendNANA
04:00 -3.1 -4.4 91 0.0 28 7   100.37   -6 LegendNANA
05:00 -3.9 -5.2 91 0.0 29 3   100.40   -5 LegendNANA
06:00 -4.1 -5.5 90 0.0 26 4   100.44   -6 LegendNANA
07:00 -1.0 -4.1 80 0.0 26 4   100.43   -2 LegendNANA
08:00 1.1 -6.1 59 0.0 23 4   100.40     LegendNANA
09:00 4.1 -6.2 47 0.0 2 5   100.41     LegendNANA
10:00 5.1 -9.2 35 0.0 30 6   100.41     LegendNANA
11:00 6.7 -9.9 30 0.0 24 18   100.36     LegendNANA
12:00 6.9 -10.7 27 0.0 22 20   100.33     LegendNANA
13:00 7.5 -10.6 26 0.0 20 11   100.29     LegendNANA
14:00 8.3 -11.1 24 0.0 29 10   100.26     LegendNANA
15:00 4.6 -3.2 57 0.0 6 21   100.31     LegendNANA
16:00 4.6 -3.2 57 0.0 5 19   100.37     LegendNANA
17:00 3.4 -3.2 62 0.0 5 18   100.43     LegendNANA
18:00 3.0 -4.3 59 0.0 8 20   100.44     LegendNANA
19:00 2.0 -9.7 41 0.0 4 18   100.49     LegendNANA
20:00 1.3 -10.1 42 0.0 2 12   100.58     LegendNANA
21:00 0.3 -7.6 55 0.0 1 15   100.72     LegendNANA
22:00 -0.6 -7.4 60 0.0 36 9   100.75   -4 LegendNANA
23:00 -1.7 -6.0 72 0.0 33 13   100.80   -6 LegendNANA

Notes on Data Quality.

Legend

  • E = Estimated
  • M = Missing
  • NA = Not Available*
  • [empty] = Indicates an unobserved value
Date modified: